Weather History for KXVG - May, 2009

Change the Weather History Date:

Thursday, May 14, 2009

  Actual Average Record
Temperature  
Mean Temperature 42 °F -  
Max Temperature 51 °F - - ()
Min Temperature 32 °F - - ()
Degree Days  
Heating Degree Days 24    
Moisture  
Dew Point 31 °F    
Average Humidity 73    
Maximum Humidity 93    
Minimum Humidity 43    
Precipitation  
Precipitation 0.01 in - - ()
Sea Level Pressure  
Sea Level Pressure 29.92 in    
Wind  
Wind Speed - (North)    
Max Wind Speed -    
Max Gust Speed -    
Visibility 10 miles    
Events Rain    
T = Trace of Precipitation, MM = Missing Value Source: NWS Daily Summary

Daily Weather History Graph

Daily Weather History Graph

Search for Another Location

Airport or City:

Trip Planner

Search our weather history database for the weather conditions in past years. The results will help you decide how hot, cold, wet, or windy it might be!

Date:

Astronomy

May. 14, 2009 Rise Set
Actual Time 5:42 AM CDT 8:44 PM CDT
Civil Twilight 5:06 AM CDT 9:20 PM CDT
Nautical Twilight 4:20 AM CDT 10:07 PM CDT
Astronomical Twilight 3:24 AM CDT 11:04 PM CDT
Moon 1:04 AM CDT (5/14) 9:50 AM CDT (5/14)
Length of Visible Light 16h 14m
Length of Day
15h 02m
Waning Gibbous, 74% of the Moon is Illuminated
May 14
Waning Gibbous
May 17
Last Quarter
May 24
New
May 30
First Quarter
Jun 7
Full

Hourly Weather History & Observations

Time (CDT) Temp. Dew Point Humidity Pressure Visibility Wind Dir Wind Speed Gust Speed Precip Events Conditions
12:14 AM 42.8 °F 39.2 °F 87% 29.60 in 10.0 mi North - - N/A Rain Rain
12:34 AM 39.2 °F 35.6 °F 87% 29.63 in 10.0 mi North - - 0.01 in Rain Rain
12:54 AM 37.4 °F 35.6 °F 93% 29.64 in 10.0 mi North - - 0.01 in   Light Drizzle
1:14 AM 37.4 °F 35.6 °F 93% 29.65 in 10.0 mi North - - N/A   Overcast
1:34 AM 37.4 °F 33.8 °F 87% 29.67 in 10.0 mi North - - N/A   Overcast
1:54 AM 37.4 °F 33.8 °F 87% 29.68 in 10.0 mi North - - N/A   Overcast
2:14 AM 35.6 °F 33.8 °F 93% 29.70 in 10.0 mi North - - N/A   Overcast
2:34 AM 35.6 °F 32.0 °F 87% 29.72 in 10.0 mi North - - N/A   Overcast
2:54 AM 35.6 °F 32.0 °F 87% 29.73 in 7.0 mi North - - N/A   Overcast
3:14 AM 35.6 °F 32.0 °F 87% 29.74 in 10.0 mi North - - N/A   Overcast
3:34 AM 33.8 °F 30.2 °F 87% 29.76 in 10.0 mi North - - N/A   Overcast
3:54 AM 33.8 °F 30.2 °F 87% 29.77 in 10.0 mi North - - N/A   Overcast
4:14 AM 33.8 °F 30.2 °F 87% 29.78 in 10.0 mi North - - N/A   Overcast
4:34 AM 33.8 °F 30.2 °F 87% 29.79 in 10.0 mi North - - N/A   Overcast
4:54 AM 33.8 °F 30.2 °F 87% 29.80 in 10.0 mi North - - N/A   Overcast
5:14 AM 33.8 °F 28.4 °F 81% 29.81 in 10.0 mi North - - N/A   Overcast
5:34 AM 32.0 °F 28.4 °F 87% 29.82 in 10.0 mi North - - N/A   Overcast
5:54 AM 32.0 °F 28.4 °F 87% 29.83 in 10.0 mi North - - N/A   Overcast
6:14 AM 32.0 °F 28.4 °F 87% 29.85 in 10.0 mi North - - N/A   Overcast
7:14 AM 32.0 °F 28.4 °F 87% 29.87 in 10.0 mi North - - N/A   Overcast
7:34 AM 32.0 °F 28.4 °F 87% 29.88 in 10.0 mi North - - N/A   Overcast
7:54 AM 32.0 °F 28.4 °F 87% 29.90 in 10.0 mi North - - N/A   Overcast
8:14 AM 32.0 °F 26.6 °F 80% 29.90 in 10.0 mi North - - N/A   Overcast
8:34 AM 32.0 °F 28.4 °F 87% 29.90 in 10.0 mi North - - N/A   Overcast
8:54 AM 32.0 °F 28.4 °F 87% 29.92 in 10.0 mi North - - N/A   Overcast
9:14 AM 32.0 °F 28.4 °F 87% 29.93 in 10.0 mi North - - N/A   Overcast
9:34 AM 33.8 °F 26.6 °F 75% 29.94 in 10.0 mi North - - N/A   Overcast
9:54 AM 32.0 °F 28.4 °F 87% 29.94 in 10.0 mi North - - N/A   Overcast
10:14 AM 32.0 °F 28.4 °F 87% 29.94 in 10.0 mi North - - N/A   Overcast
10:34 AM 32.0 °F 28.4 °F 87% 29.95 in 10.0 mi North - - N/A   Overcast
10:54 AM 33.8 °F 28.4 °F 81% 29.97 in 10.0 mi North - - N/A   Overcast
11:14 AM 33.8 °F 28.4 °F 81% 29.99 in 10.0 mi North - - N/A   Overcast
11:34 AM 33.8 °F 26.6 °F 75% 30.01 in 10.0 mi North - - N/A   Overcast
11:54 AM 35.6 °F 26.6 °F 70% 30.01 in 10.0 mi North - - N/A   Overcast
12:14 PM 37.4 °F 28.4 °F 70% 30.02 in 10.0 mi North - - N/A   Mostly Cloudy
12:34 PM 37.4 °F 28.4 °F 70% 30.02 in 10.0 mi North - - N/A   Overcast
12:54 PM 39.2 °F 28.4 °F 65% 30.02 in 10.0 mi North - - N/A   Mostly Cloudy
1:14 PM 41.0 °F 28.4 °F 61% 30.03 in 10.0 mi North - - N/A   Scattered Clouds
1:34 PM 42.8 °F 30.2 °F 61% 30.03 in 10.0 mi North - - N/A   Scattered Clouds
1:54 PM 42.8 °F 30.2 °F 61% 30.04 in 10.0 mi North - - N/A   Scattered Clouds
2:14 PM 44.6 °F 30.2 °F 57% 30.04 in 10.0 mi North - - N/A   Scattered Clouds
2:34 PM 44.6 °F 30.2 °F 57% 30.04 in 10.0 mi North - - N/A   Clear
2:54 PM 44.6 °F 30.2 °F 57% 30.04 in 10.0 mi North - - N/A   Clear
3:14 PM 44.6 °F 32.0 °F 61% 30.05 in 10.0 mi North - - N/A   Clear
3:34 PM 46.4 °F 30.2 °F 53% 30.05 in 10.0 mi North - - N/A   Clear
3:54 PM 46.4 °F 32.0 °F 57% 30.05 in 10.0 mi North - - N/A   Clear
4:14 PM 48.2 °F 32.0 °F 54% 30.05 in 10.0 mi North - - N/A   Clear
4:34 PM 48.2 °F 30.2 °F 50% 30.04 in 10.0 mi North - - N/A   Clear
4:54 PM 48.2 °F 32.0 °F 54% 30.04 in 10.0 mi North - - N/A   Clear
5:14 PM 48.2 °F 32.0 °F 54% 30.04 in 10.0 mi North - - N/A   Clear
5:34 PM 50.0 °F 30.2 °F 47% 30.03 in 10.0 mi North - - N/A   Clear
5:54 PM 50.0 °F 30.2 °F 47% 30.03 in 10.0 mi North - - N/A   Clear
6:14 PM 51.8 °F 30.2 °F 44% 30.03 in 10.0 mi North - - N/A   Clear
6:34 PM 50.0 °F 28.4 °F 43% 30.02 in 10.0 mi North - - N/A   Clear
6:54 PM 50.0 °F 28.4 °F 43% 30.01 in 10.0 mi North - - N/A   Clear
7:14 PM 50.0 °F 28.4 °F 43% 30.01 in 10.0 mi North - - N/A   Clear
7:34 PM 50.0 °F 30.2 °F 47% 30.00 in 10.0 mi North - - N/A   Clear
7:54 PM 48.2 °F 32.0 °F 54% 30.00 in 10.0 mi North - - N/A   Clear
8:14 PM 48.2 °F 33.8 °F 58% 30.00 in 10.0 mi North - - N/A   Clear
8:34 PM 46.4 °F 33.8 °F 62% 30.00 in 10.0 mi North - - N/A   Clear
8:54 PM 44.6 °F 35.6 °F 71% 30.00 in 10.0 mi North - - N/A   Clear
9:14 PM 42.8 °F 35.6 °F 76% 30.01 in 10.0 mi North - - N/A   Clear
9:34 PM 42.8 °F 35.6 °F 76% 30.01 in 10.0 mi North - - N/A   Clear
9:54 PM 42.8 °F 37.4 °F 81% 30.01 in 10.0 mi North - - N/A   Clear
10:14 PM 39.2 °F 33.8 °F 81% 30.00 in 10.0 mi North - - N/A   Clear
10:34 PM 39.2 °F 33.8 °F 81% 30.00 in 10.0 mi North - - N/A   Clear
10:54 PM 37.4 °F 33.8 °F 87% 30.00 in 10.0 mi North - - N/A   Clear
11:14 PM 37.4 °F 33.8 °F 87% 29.99 in 10.0 mi North - - N/A   Clear
11:34 PM 39.2 °F 33.8 °F 81% 29.99 in 10.0 mi North - - N/A   Clear
11:54 PM 39.2 °F 33.8 °F 81% 29.99 in 10.0 mi North - - N/A   Clear